Location: Unspecified
(0.0000°N, 0.0000°E)
Time: 02:11:22
(UTC+00:00)

Amateur Radio Satellites - All Passes

Search period start: 21 October 2014 01:41
Search period end: 22 October 2014 01:41
Location: Unspecified, 0.0000°N, 0.0000°E

Satellite Date Start Highest point End Downlink Frequencies (MHz)
Time Altitude Azimuth
Gurwin Techsat 1B 21 Oct 01:46:16 01:50:47 29° 103° (ESE) 01:55:19 435.225 FM
Uribyol 2 21 Oct 01:47:56 01:53:07 78° 103° (ESE) 01:58:17 436.500 FM
ITAMSAT 1 21 Oct 01:52:45 01:57:57 83° 103° (ESE) 02:03:09 435.822 SSB
TMSAT-1 21 Oct 02:00:33 02:05:03 29° 103° (ESE) 02:09:34 436.925 FM
AO-Echo 21 Oct 02:08:58 02:14:00 45° 282° (WNW) 02:18:59 ?
AO-27 21 Oct 02:37:54 02:42:17 28° 283° (WNW) 02:46:40 436.795 MHz FM
Sapphire 21 Oct 02:47:58 02:53:20 74° 109° (ESE) 02:58:42 437.095 MHz 1200 baud AX-25 AFSK
JAS-1B 21 Oct 02:54:54 02:59:58 19° 281° (W) 03:05:35 435.800 - 435.900 CW/SSB
PCSat 21 Oct 03:11:08 03:16:22 54° 289° (WNW) 03:21:37 145.825 MHz
Gurwin Techsat 1B 21 Oct 03:26:58 03:30:28 18° 283° (WNW) 03:34:00 435.225 FM
TMSAT-1 21 Oct 03:41:12 03:44:42 18° 283° (WNW) 03:48:12 436.925 FM
PANSAT 21 Oct 03:41:38 03:45:10 35° 150° (SSE) 03:48:42 not established
Uosat F 21 Oct 03:49:41 03:54:36 54° 103° (ESE) 03:59:30 435.120 FM
OPAL 21 Oct 03:59:50 04:03:42 21° 76° (ENE) 04:07:32 ?
AO-7 21 Oct 04:00:27 04:08:48 89° 106° (ESE) 04:17:11 29.400 - 29.500 MHz
JAS-2 21 Oct 04:14:32 04:20:37 25° 102° (ESE) 04:26:25 435.800 - 435.900 CW/SSB, 435.910 FM
Hamsat 21 Oct 04:45:36 04:48:39 20° 102° (ESE) 04:51:44 145.90 MHz
PANSAT 21 Oct 05:21:52 05:25:15 29° 330° (NNW) 05:28:38 not established
Saudisat 1A 21 Oct 05:26:49 05:28:21 12° 113° (ESE) 05:29:53 436.775 MHz
STRAND 1 21 Oct 05:37:27 05:40:54 18° 77° (ENE) 05:44:20 ?
OPAL 21 Oct 05:38:06 05:42:17 25° 255° (WSW) 05:46:28 ?
SO-67 21 Oct 05:56:36 05:57:49 12° 101° (ESE) 05:59:02 435.3500 MHz FM
JAS-2 21 Oct 05:58:06 06:05:17 41° 284° (WNW) 06:12:11 435.800 - 435.900 CW/SSB, 435.910 FM
Hamsat 21 Oct 06:21:45 06:24:20 16° 281° (W) 06:26:57 145.90 MHz
RS-15 21 Oct 06:57:14 07:02:05 13° 67° (ENE) 07:06:58 29.354 - 29.394 USB, Beacon 29.352 USB
Saudisat 1A 21 Oct 07:03:51 07:07:40 29° 292° (WNW) 07:11:29 436.775 MHz
STRAND 1 21 Oct 07:15:36 07:19:48 26° 257° (WSW) 07:24:01 ?
SO-67 21 Oct 07:28:24 07:30:32 16° 281° (W) 07:32:39 435.3500 MHz FM
HO-68 21 Oct 07:35:00 07:40:04 21° 105° (ESE) 07:45:07 435.675 MHz FM
Oscar 11 21 Oct 08:23:36 08:24:05 10° 102° (ESE) 08:24:35 145.825 FM, Beacon 2401.500 USB
ZACube-1 21 Oct 09:00:25 09:01:08 10° 102° (ESE) 09:01:51 437.345 MHz
RS-15 21 Oct 09:02:32 09:14:12 88° 250° (WSW) 09:26:24 29.354 - 29.394 USB, Beacon 29.352 USB
UKube-1 21 Oct 09:10:20 09:14:38 65° 102° (ESE) 09:18:57 145.840 MHz, 145.915 MHz
HO-68 21 Oct 09:20:46 09:27:25 43° 285° (WNW) 09:34:07 435.675 MHz FM
FUNcube-1 21 Oct 09:42:52 09:46:52 48° 101° (ESE) 09:50:53 145.950 - 145.970 MHz USB
Oscar 11 21 Oct 09:56:12 09:59:59 31° 282° (WNW) 10:03:48 145.825 FM, Beacon 2401.500 USB
ISS 21 Oct 10:03:58 10:05:59 15° 126° (SE) 10:08:01 145.800 FM
KITSAT 1 21 Oct 10:04:19 10:11:11 30° 110° (ESE) 10:17:59 435.175 FM
ZACube-1 21 Oct 10:33:45 10:37:16 27° 282° (WNW) 10:40:48 437.345 MHz
MaSat-1 21 Oct 11:01:13 11:03:25 38° 252° (WSW) 11:05:42 437.345 MHz
RS-15 21 Oct 11:22:38 11:26:46 12° 245° (WSW) 11:30:58 29.354 - 29.394 USB, Beacon 29.352 USB
ISS 21 Oct 11:40:19 11:42:29 16° 306° (NW) 11:44:40 145.800 FM
SO-50 21 Oct 11:45:31 11:49:55 89° 291° (WNW) 11:54:20 436.795 FM
KITSAT 1 21 Oct 11:59:09 12:06:14 34° 290° (WNW) 12:13:19 435.175 FM
Oscar 16 21 Oct 12:32:19 12:36:42 28° 77° (ENE) 12:41:02 437.025 USB, Beacon 2401.1428
Uribyol 2 21 Oct 12:46:43 12:48:53 13° 77° (ENE) 12:51:03 436.500 FM
ITAMSAT 1 21 Oct 12:51:26 12:53:52 13° 77° (ENE) 12:56:17 435.822 SSB
AO-Echo 21 Oct 13:00:54 13:04:34 23° 77° (ENE) 13:08:17 ?
JAS-1B 21 Oct 13:14:57 13:22:27 68° 78° (ENE) 13:28:43 435.800 - 435.900 CW/SSB
Oscar 19 21 Oct 13:25:39 13:30:48 66° 258° (WSW) 13:35:55 437.125 CW, 437.150 USB
UOSAT-12 21 Oct 13:31:08 13:35:37 84° 292° (WNW) 13:40:10 437.025 FM, 437.400 FM
AO-27 21 Oct 13:33:20 13:38:19 48° 77° (ENE) 13:43:17 436.795 MHz FM
Sapphire 21 Oct 13:43:29 13:46:31 15° 70° (ENE) 13:49:33 437.095 MHz 1200 baud AX-25 AFSK
PCSat 21 Oct 14:04:49 14:09:32 31° 71° (ENE) 14:14:14 145.825 MHz
Oscar 16 21 Oct 14:12:18 14:15:45 18° 257° (WSW) 14:19:13 437.025 USB, Beacon 2401.1428
Uribyol 2 21 Oct 14:23:16 14:28:04 39° 257° (WSW) 14:32:53 436.500 FM
Gurwin Techsat 1B 21 Oct 14:24:05 14:29:24 84° 78° (ENE) 14:34:42 435.225 FM
ITAMSAT 1 21 Oct 14:28:20 14:33:04 36° 257° (WSW) 14:37:48 435.822 SSB
AO-7 21 Oct 14:37:50 14:42:56 18° 73° (ENE) 14:47:59 29.400 - 29.500 MHz
TMSAT-1 21 Oct 14:37:58 14:43:16 84° 78° (ENE) 14:48:34 436.925 FM
AO-Echo 21 Oct 14:40:01 14:43:06 17° 258° (WSW) 14:46:12 ?
JAS-1B 21 Oct 15:11:29 15:12:09 10° 251° (WSW) 15:12:49 435.800 - 435.900 CW/SSB
Sapphire 21 Oct 15:24:48 15:29:40 35° 251° (WSW) 15:34:33 437.095 MHz 1200 baud AX-25 AFSK
PANSAT 21 Oct 15:28:49 15:32:23 36° 30° (NNE) 15:35:58 not established
PCSat 21 Oct 15:49:14 15:52:40 17° 250° (WSW) 15:56:07 145.825 MHz
Uosat F 21 Oct 16:19:25 16:24:22 63° 257° (WSW) 16:29:19 435.120 FM
AO-7 21 Oct 16:27:13 16:35:19 58° 254° (WSW) 16:43:23 29.400 - 29.500 MHz
OPAL 21 Oct 16:30:34 16:35:18 48° 104° (ESE) 16:40:04 ?
Hamsat 21 Oct 16:52:28 16:56:00 25° 79° (E) 16:59:29 145.90 MHz
PANSAT 21 Oct 17:09:07 17:12:29 28° 210° (SSW) 17:15:52 not established
Saudisat 1A 21 Oct 17:31:21 17:34:23 18° 68° (ENE) 17:37:24 436.775 MHz
JAS-2 21 Oct 17:31:45 17:36:54 64° 258° (WSW) 17:42:24 435.800 - 435.900 CW/SSB, 435.910 FM
STRAND 1 21 Oct 18:08:43 18:13:37 46° 103° (ESE) 18:18:31 ?
Hamsat 21 Oct 18:29:46 18:31:39 13° 258° (WSW) 18:33:33 145.90 MHz
Saudisat 1A 21 Oct 19:10:29 19:13:41 20° 248° (WSW) 19:16:53 436.775 MHz
SO-67 21 Oct 19:11:48 19:14:47 28° 259° (W) 19:17:45 435.3500 MHz FM
HO-68 21 Oct 19:27:23 19:31:41 17° 75° (ENE) 19:35:57 435.675 MHz FM
Oscar 11 21 Oct 20:30:58 20:33:19 14° 78° (ENE) 20:35:40 145.825 FM, Beacon 2401.500 USB
RS-15 21 Oct 20:45:50 20:57:21 81° 111° (ESE) 21:08:21 29.354 - 29.394 USB, Beacon 29.352 USB
ZACube-1 21 Oct 21:08:48 21:11:54 18° 78° (ENE) 21:14:59 437.345 MHz
HO-68 21 Oct 21:12:11 21:19:02 51° 255° (WSW) 21:25:54 435.675 MHz FM
UKube-1 21 Oct 21:20:00 21:24:21 90° 71° (ENE) 21:28:41 145.840 MHz, 145.915 MHz
FUNcube-1 21 Oct 21:52:54 21:57:30 74° 78° (ENE) 22:02:05 145.950 - 145.970 MHz USB
Oscar 11 21 Oct 22:05:46 22:09:14 23° 258° (WSW) 22:12:41 145.825 FM, Beacon 2401.500 USB
KITSAT 1 21 Oct 22:11:47 22:19:09 39° 70° (ENE) 22:26:30 435.175 FM
MaSat-1 21 Oct 22:41:06 22:45:39 84° 287° (WNW) 22:50:06 437.345 MHz
ZACube-1 21 Oct 22:44:28 22:48:00 22° 258° (WSW) 22:51:33 437.345 MHz
RS-15 21 Oct 23:04:15 23:09:21 14° 293° (WNW) 23:14:24 29.354 - 29.394 USB, Beacon 29.352 USB
ISS 21 Oct 23:15:11 23:17:58 25° 234° (SW) 23:20:45 145.800 FM
SO-50 21 Oct 23:58:36 00:03:17 47° 248° (WSW) 00:07:56 436.795 FM
KITSAT 1 22 Oct 00:07:50 00:14:12 26° 249° (WSW) 00:20:37 435.175 FM
Oscar 19 22 Oct 00:21:50 00:25:25 19° 103° (ESE) 00:29:00 437.125 CW, 437.150 USB
Oscar 16 22 Oct 01:05:24 01:10:29 72° 102° (ESE) 01:15:36 437.025 USB, Beacon 2401.1428
Uribyol 2 22 Oct 01:19:10 01:23:48 34° 103° (ESE) 01:28:26 436.500 FM
JAS-1B 22 Oct 01:20:37 01:28:26 80° 104° (ESE) 01:37:43 435.800 - 435.900 CW/SSB
ITAMSAT 1 22 Oct 01:24:12 01:28:55 36° 103° (ESE) 01:33:39 435.822 SSB
Gurwin Techsat 1B 22 Oct 01:25:10 01:28:13 16° 103° (ESE) 01:31:15 435.225 FM
AO-Echo 22 Oct 01:28:48 01:34:00 59° 102° (ESE) 01:39:08 ?
